Location: Kervinic
(48.4279°N, 4.7373°W)
Time: 11:07:52
(UTC+00:00)

Cosmos 1833 Rocket - Pass Details

Date: 09 April 2020
Orbit: 834 x 838 km, 71.0° (Epoch: 27 May)

Event Time Altitude Azimuth Distance (km) Brightness Sun altitude
Exits shadow 20:39:28 15° 81° (E) 2,109 4.3 -15.7°
Drops below altitude 10° 20:41:30 10° 61° (ENE) 2,458 4.8 -16.0°
Sets 20:44:49 0° 41° (NE) 3,397 5.8 -16.5°
